Location: Brighton Point
(40.6144°N, 111.7933°W)
Time: 23:36:11
(UTC+00:00)

N. Korean satellite - Pass Details

Date: 10 March 2021
Orbit: 453 x 499 km, 97.2° (Epoch: 12 April)

Event Time Altitude Azimuth Distance (km) Brightness Sun altitude
Rises 13:15:41 0° 4° (N) 2,550 10.3 -6.6°
Reaches altitude 10° 13:17:48 10° 358° (N) 1,674 9.3 -6.2°
Maximum altitude 13:21:13 42° 286° (WNW) 706 7.0 -5.6°
Drops below altitude 10° 13:24:39 10° 215° (SW) 1,683 9.0 -4.9°
Sets 13:26:47 0° 208° (SSW) 2,566 10.0 -4.5°
